Simultaneous Nadir Overpasses (SNOs) Predictions

Prediction of SNOs between GOES-14 and NOAA-20 Satellite Orbit:

Table of predicted SNOs for the next 14.0 days since TLE Epoch: 4/3/2020
Index Date Time (GOES-14) GOES-14 Lat,Lon NOAA-20 Lat,Lon Distance(km) Time Diff (sec)
1 04/03/2020 20:30:25 -0.13,-104.09 0.00,-105.92 204.42 80
2 04/04/2020 20:08:52 -0.14,-104.08 0.50,-101.28 320.00 80
3 04/06/2020 08:30:39 0.14,-104.14 0.70,-106.54 274.48 80
4 04/07/2020 08:14:34 0.14,-104.15 -0.32,-102.02 242.62 80
5 04/08/2020 20:36:31 -0.13,-104.11 -0.86,-107.32 366.88 80
6 04/09/2020 20:15:06 -0.14,-104.10 0.17,-102.80 148.88 80
7 04/11/2020 08:36:53 0.13,-104.14 1.03,-108.06 447.92 80
8 04/12/2020 08:20:49 0.13,-104.15 0.00,-103.54 69.14 80
9 04/14/2020 20:24:01 -0.14,-104.12 -0.15,-104.32 22.44 80
10 04/15/2020 20:02:35 -0.14,-104.11 0.82, -99.78 493.69 80
11 04/17/2020 08:24:24 0.14,-104.15 0.32,-105.06 103.76 80




NCC Satellite Simultaneous Nadir Overpasses (SNOs) Prediction Service
